EA3DKP Weather Reports


time (UTC)temp
F
wind
direction
speed
knots
gust
knots
rain 1hr
in
rain 24hr
in
rain mn
in
humidity
%
barometer
mb
20260902143044 92 360 0.0 0.0 0.00 0.00 0.00 43 1017.3
20260902141540 90 360 0.0 0.0 0.00 0.00 0.00 40 1017.2
20260902140027 90 360 0.0 0.0 0.00 0.00 0.00 40 1017.2
20260902134526 90 208 0.0 0.0 0.00 0.00 0.00 41 1017.2
20260902133025 90 360 0.0 0.0 0.00 0.00 0.00 41 1017.3
20260902131523 89 360 0.0 0.0 0.00 0.00 0.00 42 1017.4
20260902130021 89 128 0.0 0.0 0.00 0.00 0.00 42 1017.3
20260902124521 89 360 0.0 0.0 0.00 0.00 0.00 42 1017.5
20260902123022 89 360 0.0 0.0 0.00 0.00 0.00 42 1017.7
20260902121519 88 360 0.0 0.0 0.00 0.00 0.00 42 1017.7
20260902120006 88 360 0.0 0.0 0.00 0.00 0.00 43 1017.7
20260902114504 88 360 0.0 0.0 0.00 0.00 0.00 43 1017.8
20260902113004 87 360 0.0 0.0 0.00 0.00 0.00 43 1017.9
20260902111502 87 360 0.0 0.0 0.00 0.00 0.00 42 1017.9
20260902110101 87 360 0.0 0.0 0.00 0.00 0.00 43 1017.9
20260902104559 87 360 0.0 0.0 0.00 0.00 0.00 42 1018.0
20260902103107 87 360 0.0 0.0 0.00 0.00 0.00 43 1018.2
20260902101552 87 360 0.0 0.0 0.00 0.00 0.00 43 1018.1
20260902100057 86 360 0.0 0.0 0.00 0.00 0.00 44 1018.1
20260902094534 86 360 0.0 0.0 0.00 0.00 0.00 45 1018.3
20260902093033 85 360 0.0 0.0 0.00 0.00 0.00 55 1018.5
20260902091527 83 244 0.0 0.0 0.00 0.00 0.00 58 1018.4
20260902090021 82 360 0.0 0.0 0.00 0.00 0.00 61 1018.3
20260902084519 81 360 0.0 0.0 0.00 0.00 0.00 66 1018.2
20260902083014 80 360 0.0 0.0 0.00 0.00 0.00 67 1018.1
20260902081509 79 360 0.0 0.0 0.00 0.00 0.00 71 1018.1
20260902080105 77 360 0.0 0.0 0.00 0.00 0.00 73 1018.1
20260902074550 76 360 0.0 0.0 0.00 0.00 0.00 75 1017.9
20260902073049 76 360 0.0 0.0 0.00 0.00 0.00 75 1017.8
20260902071545 75 360 0.0 0.0 0.00 0.00 0.00 77 1017.6
20260902070036 73 360 0.0 0.0 0.00 0.00 0.00 81 1017.6
20260902064537 71 360 0.0 0.0 0.00 0.00 0.00 84 1017.8
20260902063028 68 360 0.0 0.0 0.00 0.00 0.00 85 1017.6
20260902061523 67 360 0.0 0.0 0.00 0.00 0.00 85 1017.6
20260902060010 66 360 0.0 0.0 0.00 0.00 0.00 86 1017.4
20260902054503 66 360 0.0 0.0 0.00 0.00 0.00 85 1017.2
20260902053002 66 360 0.0 0.0 0.00 0.00 0.00 85 1017.2
20260902051600 66 360 0.0 0.0 0.00 0.00 0.00 85 1017.1
20260902050058 66 360 0.0 0.0 0.00 0.00 0.00 85 1017.0
20260902044559 66 360 0.0 0.0 0.00 0.00 0.00 85 1016.8
20260902043128 66 360 0.0 0.0 0.00 0.00 0.00 85 1016.8
20260902041607 66 360 0.0 0.0 0.00 0.00 0.00 84 1016.9
20260902040041 66 360 0.0 0.0 0.00 0.00 0.00 84 1016.9
20260902034534 67 360 0.0 0.0 0.00 0.00 0.00 84 1016.9
20260902033022 68 360 0.0 0.0 0.00 0.00 0.00 83 1016.9
20260902031522 68 360 0.0 0.0 0.00 0.00 0.00 83 1016.9
20260902030018 68 360 0.0 0.0 0.00 0.00 0.00 82 1017.0
20260902024516 69 360 0.0 0.0 0.00 0.00 0.00 83 1017.0
20260902023020 69 360 0.0 0.0 0.00 0.00 0.00 83 1017.0
20260902021522 69 360 0.0 0.0 0.00 0.00 0.00 82 1017.0
20260902020014 70 360 0.0 0.0 0.00 0.00 0.00 81 1017.2
20260902014517 70 360 0.0 0.0 0.00 0.00 0.00 81 1017.1
20260902013001 70 360 0.0 0.0 0.00 0.00 0.00 82 1017.1
20260902011608 70 360 0.0 0.0 0.00 0.00 0.00 81 1017.1
20260902010100 70 360 0.0 0.0 0.00 0.00 0.00 81 1017.1
20260902004559 70 360 0.0 0.0 0.00 0.00 0.00 80 1017.1
20260902003059 69 360 0.0 0.0 0.00 0.00 0.00 80 1017.1
20260902001607 70 360 0.0 0.0 0.00 0.00 0.00 80 1017.1
20260902000056 70 360 0.0 0.0 0.00 0.00 0.00 79 1017.2
20260901234604 70 360 0.0 0.0 0.00 0.00 0.00 79 1017.2
20260901233053 70 360 0.0 0.0 0.00 0.00 0.00 79 1017.1
20260901231542 70 360 0.0 0.0 0.00 0.00 0.00 79 1017.0
20260901230038 71 360 0.0 0.0 0.00 0.00 0.00 78 1016.8
20260901224536 72 360 0.0 0.0 0.00 0.00 0.00 78 1016.8
20260901223033 72 360 0.0 0.0 0.00 0.00 0.00 77 1016.8
20260901221534 73 360 0.0 0.0 0.00 0.00 0.00 77 1016.7
20260901220032 73 360 0.0 0.0 0.00 0.00 0.00 76 1016.6
20260901214535 74 360 0.0 0.0 0.00 0.00 0.00 76 1016.5
20260901213008 74 360 0.0 0.0 0.00 0.00 0.00 76 1016.2
20260901211506 74 360 0.0 0.0 0.00 0.00 0.00 76 1016.2
20260901210113 75 360 0.0 0.0 0.00 0.00 0.00 75 1016.1
20260901204551 75 360 0.0 0.0 0.00 0.00 0.00 74 1016.3
20260901203114 76 360 0.0 0.0 0.00 0.00 0.00 73 1016.3
20260901201556 76 360 0.0 0.0 0.00 0.00 0.00 72 1016.4
20260901200047 77 360 0.0 0.0 0.00 0.00 0.00 72 1016.1
20260901194548 77 360 0.0 0.0 0.00 0.00 0.00 72 1015.6
20260901193047 77 360 0.0 0.0 0.00 0.00 0.00 72 1015.6
20260901191600 78 360 0.0 0.0 0.00 0.00 0.00 71 1015.7
20260901190045 78 360 0.0 0.0 0.00 0.00 0.00 71 1015.5
20260901184533 79 360 0.0 0.0 0.00 0.00 0.00 71 1015.3
20260901183031 79 360 0.0 0.0 0.00 0.00 0.00 71 1015.5
20260901181531 79 360 0.0 0.0 0.00 0.00 0.00 70 1015.4
20260901180030 79 360 0.0 0.0 0.00 0.00 0.00 70 1015.5
20260901174527 80 360 0.0 0.0 0.00 0.00 0.00 70 1015.6
20260901173027 80 360 0.0 0.0 0.00 0.00 0.00 69 1016.1
20260901171525 80 360 0.0 0.0 0.00 0.00 0.00 69 1015.8
20260901170025 80 360 0.0 0.0 0.00 0.00 0.00 67 1015.8
20260901164506 80 243 0.0 0.0 0.00 0.00 0.00 68 1016.1
20260901163006 80 243 0.0 0.0 0.00 0.00 0.00 66 1016.3
20260901161553 79 360 0.0 0.0 0.00 0.00 0.00 65 1016.3
20260901160057 80 360 0.0 0.0 0.00 0.00 0.00 61 1016.2
20260901154557 81 360 0.0 0.0 0.00 0.00 0.00 60 1016.3
20260901153052 81 215 0.0 0.0 0.00 0.00 0.00 57 1016.1
20260901151549 81 360 0.0 0.0 0.00 0.00 0.00 56 1016.2
20260901150048 81 360 0.0 0.0 0.00 0.00 0.00 51 1016.4
20260901144546 81 360 0.0 0.0 0.00 0.00 0.00 52 1016.5